Temp
68 69 70 70 70 70 70 70 71 71 71 71 70 70 70 71 72 72 72 72 71 70 69 69 69 69 68 67 66 67 67 66
66 66 68 68 71 69 69 69 69 69 68 68 68 69 69 69 71 70 71 71 70 70 69 69 68 68 67 66 66 66 62 63
64 64 64 64 66 67 68 69 66 68 68 68 66 68 68 69 70 70 70 70 69 69 68 67 66 67 66 66 66 64 64 63
63 62 62 62 63 63 63 66 67 67 68 67 66 65 66 69 69 69 69 69 68 68 67 66 66 66 65 65 64 64 63 64
62 62 61 61 61 60 60 60 64 66 66 65 65 64 65 67 66 67 66 67 64 66 66 64 63 64 63 62 61 61 59 61
62 62 61 61 61 60 62 62 62 64 65 66 64 64 65 64 66 65 64 63 60 61 61 60 60 64 63 62 61 60 59 59
62 62 61 61 60 59 60 61 62 63 64 65 66 64 64 65 66 66 62 59 59 58 58 61 61 61 61 62 60 58 59 58
62 62 62 60 60 59 59 59 62 62 63 64 66 65 64 65 64 65 61 60 58 60 61 60 60 60 59 60 59 58 58 57
62 62 61 60 60 59 60 61 61 61 62 64 64 65 65 64 64 62 60 58 56 57 57 57 59 60 59 59 59 58 58 58
62 64 61 59 60 60 61 62 61 61 62 62 63 64 66 64 62 61 59 57 57 58 57 57 56 60 57 58 57 57 57 57
61 62 60 60 60 61 62 60 61 63 62 62 63 64 64 64 62 60 59 58 58 59 54 59 57 58 59 56 54 54 56 60
61 61 60 59 62 62 62 60 62 62 62 62 63 64 64 63 61 59 60 59 58 57 58 56 56 59 62 56 53 54 55 57
60 59 59 59 60 60 60 60 61 61 62 64 64 64 63 61 62 60 61 60 58 59 58 58 53 57 55 54 53 54 54 55
59 60 59 58 59 59 61 61 61 62 63 64 65 64 63 62 62 61 61 60 57 59 61 54 55 57 55 53 48 52 54 55
59 59 59 57 57 57 58 60 61 60 61 62 63 64 64 64 62 62 62 62 60 60 61 61 57 54 59 54 50 49 51 52
58 59 58 57 57 56 58 59 59 61 61 62 63 64 64 64 63 63 63 62 62 62 62 62 58 57 54 57 57 55 50 50
58 58 58 60 58 57 56 55 57 59 61 61 62 62 64 64 64 64 63 63 62 62 61 58 60 60 58 54 54 53 52 52
57 57 60 61 60 57 57 55 55 56 58 59 61 62 63 63 64 63 63 63 62 62 60 59 57 57 57 57 55 54 52 51
57 57 59 60 60 59 57 58 59 57 57 58 59 61 61 62 62 62 62 62 61 60 59 58 58 57 56 56 56 57 56 54
57 57 59 60 60 59 60 59 59 60 60 60 61 61 61 60 61 62 62 61 60 60 59 58 57 57 56 56 56 56 55 55
MSLP
1006.75 1007.15 1007.49 1007.77 1008.27 1008.73 1009.05 1009.37 1009.76 1010.24 1011.20 1011.51 1010.23 1012.33 1012.40 1012.45 1014.44 1014.90 1013.89 1014.78 1015.26 1015.52 1015.69 1016.22 1016.62 1017.07 1017.59 1017.97 1018.37 1018.65 1018.77 1019.11
1006.64 1007.04 1007.38 1007.74 1008.11 1008.49 1008.99 1009.30 1009.78 1010.11 1010.86 1011.32 1011.53 1011.99 1012.50 1012.14 1014.62 1014.82 1014.31 1014.75 1015.54 1015.86 1016.02 1016.45 1016.83 1016.92 1017.62 1018.21 1018.91 1018.96 1018.82 1019.48
1006.58 1007.00 1007.38 1007.60 1007.91 1008.26 1008.61 1008.94 1009.71 1010.09 1010.60 1011.14 1011.56 1012.12 1012.48 1013.01 1014.10 1014.22 1014.91 1014.93 1015.47 1015.95 1016.29 1016.68 1017.17 1017.29 1017.76 1018.42 1018.88 1019.32 1019.38 1019.92
1006.58 1006.96 1007.28 1007.59 1007.90 1008.15 1008.49 1008.83 1009.26 1009.85 1010.26 1010.90 1011.43 1011.96 1012.28 1013.20 1012.90 1013.83 1014.87 1015.09 1015.51 1015.98 1016.42 1016.90 1017.40 1017.61 1018.45 1018.66 1018.96 1019.41 1019.88 1020.28
1006.53 1006.79 1007.16 1007.40 1007.84 1008.10 1008.36 1008.66 1009.01 1009.33 1009.82 1010.59 1011.12 1011.70 1012.29 1012.69 1012.93 1013.73 1014.91 1015.12 1015.92 1016.17 1016.66 1016.93 1017.53 1017.68 1018.68 1018.75 1019.35 1019.90 1020.41 1020.55
1006.08 1006.53 1007.09 1007.35 1007.64 1007.96 1008.20 1008.40 1008.63 1008.99 1009.38 1010.04 1010.70 1011.47 1011.96 1012.36 1012.56 1013.31 1014.46 1015.10 1016.26 1016.31 1016.82 1017.23 1017.67 1017.99 1018.41 1018.81 1019.49 1020.11 1020.41 1020.83
1005.68 1006.10 1006.81 1007.26 1007.48 1007.71 1008.02 1008.11 1008.38 1008.57 1009.10 1009.59 1010.06 1010.87 1011.51 1011.90 1012.41 1013.06 1014.25 1015.06 1016.11 1016.54 1017.00 1017.32 1017.94 1018.28 1018.54 1018.86 1019.47 1020.15 1020.61 1020.93
1005.23 1005.56 1006.19 1006.88 1007.22 1007.51 1007.75 1007.93 1007.99 1008.37 1008.85 1009.16 1009.43 1010.11 1011.00 1011.66 1012.44 1012.97 1014.13 1014.93 1015.92 1016.38 1016.96 1017.45 1018.07 1018.51 1018.64 1019.08 1019.66 1020.19 1020.58 1021.09
1004.49 1005.21 1005.96 1006.67 1006.99 1007.14 1007.47 1007.55 1007.88 1008.38 1008.53 1008.81 1009.04 1009.10 1010.05 1011.19 1011.94 1012.87 1013.88 1014.78 1015.74 1016.54 1017.26 1017.74 1018.19 1018.39 1018.85 1019.37 1019.81 1020.20 1020.77 1021.12
1004.32 1004.91 1005.64 1006.28 1006.71 1006.83 1006.99 1007.13 1007.40 1007.67 1007.85 1008.18 1008.35 1008.61 1009.10 1010.76 1011.55 1012.69 1013.82 1014.77 1015.66 1016.52 1017.12 1017.69 1018.40 1018.30 1019.04 1019.74 1020.04 1020.48 1020.91 1021.30
1004.06 1004.78 1005.33 1005.89 1006.24 1006.47 1006.74 1006.88 1007.00 1007.19 1007.10 1007.20 1007.97 1007.87 1008.75 1010.10 1011.35 1012.82 1013.58 1014.69 1015.38 1016.32 1016.87 1017.51 1018.03 1018.36 1019.02 1019.65 1020.30 1020.71 1020.93 1021.43
1003.84 1004.57 1005.06 1005.50 1005.81 1006.15 1006.44 1006.68 1006.85 1006.90 1006.83 1006.96 1007.76 1008.01 1009.15 1010.08 1011.64 1012.71 1013.33 1014.53 1015.32 1016.12 1016.84 1017.35 1017.67 1018.33 1019.03 1020.05 1020.62 1020.74 1021.08 1021.47
1003.63 1004.16 1004.67 1005.17 1005.46 1005.81 1006.11 1006.27 1006.67 1006.83 1006.83 1007.28 1007.87 1008.48 1009.53 1010.58 1011.45 1012.52 1013.27 1014.05 1014.87 1015.78 1016.59 1016.87 1017.83 1018.32 1019.46 1020.71 1021.12 1021.30 1021.40 1021.59
1003.40 1003.64 1004.20 1004.80 1004.95 1005.37 1005.57 1005.95 1006.55 1007.03 1007.13 1007.40 1007.81 1008.53 1009.40 1010.24 1011.13 1012.12 1013.04 1013.90 1014.78 1015.44 1015.98 1016.58 1017.43 1017.89 1018.79 1020.03 1021.25 1021.74 1021.66 1021.73
1002.64 1002.97 1003.73 1004.54 1004.93 1005.39 1005.68 1006.09 1006.63 1007.10 1007.33 1007.53 1007.99 1008.45 1009.23 1010.06 1010.95 1011.74 1012.66 1013.47 1014.27 1014.79 1015.40 1015.77 1016.70 1018.01 1017.94 1018.59 1020.17 1020.73 1021.21 1021.63
1002.35 1002.59 1003.24 1004.09 1004.86 1005.28 1005.45 1005.64 1006.29 1006.66 1007.10 1007.64 1008.14 1008.66 1009.24 1009.79 1010.60 1011.46 1012.28 1012.93 1013.65 1014.32 1015.07 1015.32 1015.99 1017.22 1018.10 1018.12 1018.36 1019.28 1020.22 1021.19
1001.96 1002.43 1002.98 1003.74 1004.64 1005.09 1005.45 1005.75 1006.05 1006.61 1007.06 1007.64 1008.21 1008.76 1009.17 1009.70 1010.42 1011.27 1011.93 1012.51 1013.18 1013.75 1014.81 1015.11 1015.56 1016.45 1017.14 1018.12 1018.63 1019.29 1019.66 1020.18
1001.71 1002.16 1002.73 1003.47 1004.28 1004.97 1005.24 1005.53 1005.97 1006.64 1006.96 1007.43 1007.94 1008.36 1008.78 1009.36 1010.00 1010.59 1011.30 1012.01 1012.73 1013.53 1014.32 1014.81 1015.37 1016.01 1016.89 1017.43 1018.02 1018.74 1019.47 1019.90
1001.75 1001.85 1002.38 1003.32 1004.08 1004.61 1004.96 1005.23 1005.71 1006.21 1006.70 1006.98 1007.35 1007.67 1007.88 1008.38 1009.26 1010.00 1010.83 1011.54 1012.30 1013.33 1014.14 1014.73 1015.22 1015.89 1016.70 1017.46 1017.85 1018.09 1018.47 1019.54
1001.42 1001.48 1002.06 1003.03 1003.67 1004.20 1004.60 1004.97 1005.47 1005.89 1006.16 1006.44 1006.72 1007.04 1007.31 1007.26 1008.34 1009.28 1010.21 1011.21 1012.00 1012.92 1013.84 1014.53 1015.03 1015.69 1016.59 1017.37 1017.81 1018.37 1018.95 1019.62
Wind_Speed
7 10 11 13 13 13 15 17 18 18 14 18 26 22 18 15 13 15 17 16 16 16 17 17 17 16 17 16 12 14 10 6
8 7 8 8 11 14 14 13 14 18 18 13 17 20 24 25 17 12 19 18 15 15 15 15 15 19 18 15 12 13 9 7
6 7 6 7 7 7 12 16 11 19 18 18 12 10 14 22 15 13 15 18 16 15 13 13 12 19 20 17 12 5 8 5
7 7 7 6 5 6 6 6 7 11 14 13 10 10 9 10 15 16 17 17 16 15 14 15 12 9 8 11 5 7 5 6
8 8 7 7 5 4 3 3 4 7 16 14 10 7 8 7 6 8 7 13 5 9 10 5 8 9 5 6 6 5 3 3
10 9 8 7 4 5 6 5 5 6 11 17 11 8 9 9 7 9 7 6 6 5 4 5 6 9 9 9 7 5 3 3
11 10 8 7 6 4 7 7 8 7 8 12 14 12 11 10 8 9 7 6 6 6 5 6 5 7 7 10 8 6 6 3
11 12 10 8 7 8 6 6 7 7 8 11 16 14 12 11 9 10 8 8 6 7 8 7 4 7 7 8 8 6 6 5
15 12 8 9 9 7 6 6 7 7 8 12 13 16 15 13 11 9 8 7 8 6 5 5 4 5 8 7 7 7 5 6
12 10 10 8 8 7 5 6 5 6 8 11 17 16 22 13 11 10 8 8 7 7 7 7 4 7 6 5 5 5 6 5
12 10 12 11 7 6 7 6 5 4 8 9 14 12 17 12 10 9 10 8 8 8 3 8 6 6 7 6 5 5 5 5
11 10 10 8 7 7 5 4 3 3 2 9 15 9 13 11 10 10 11 9 8 6 8 3 4 7 7 6 3 4 4 5
14 13 10 8 6 7 5 5 4 3 2 13 13 12 13 12 10 11 10 11 11 11 7 9 4 5 6 4 4 2 3 3
13 13 12 7 6 2 3 5 3 3 4 9 13 14 14 11 12 12 12 10 10 11 11 4 3 8 5 4 3 2 1 2
15 14 13 8 6 5 4 5 4 3 5 6 9 14 14 14 14 12 13 11 11 12 11 11 7 2 7 6 4 4 3 2
12 13 12 9 8 6 9 5 7 4 5 6 6 10 12 13 14 14 15 11 13 11 9 9 6 10 2 1 4 5 4 2
11 12 12 11 9 7 6 5 4 4 6 9 9 9 14 13 14 15 14 11 12 14 11 6 6 9 6 3 3 3 3 4
11 13 13 11 10 8 8 8 7 4 6 7 9 8 11 15 15 14 13 12 11 11 9 9 7 7 3 4 4 4 4 4
11 14 13 13 11 11 9 8 9 8 8 8 9 9 10 18 15 14 13 13 11 10 10 9 9 10 6 4 2 3 4 2
14 15 14 14 12 10 8 8 5 6 8 7 8 10 8 15 15 14 14 13 13 12 9 8 7 7 8 4 3 2 2 2
Wind_Direction
160 176 176 165 166 170 173 178 173 169 151 153 136 145 146 150 195 183 137 140 142 138 137 134 119 124 129 130 123 127 121 107
159 164 164 167 183 175 183 183 182 154 158 175 153 156 170 154 206 187 145 143 143 143 140 135 131 136 136 124 132 112 100 98
157 156 169 172 172 171 181 199 168 162 166 168 155 158 171 172 180 162 156 144 145 147 140 122 119 135 133 130 120 125 109 115
173 163 174 165 171 166 165 166 167 178 172 170 166 166 168 195 156 157 164 146 150 152 139 124 124 124 131 122 113 116 123 128
183 175 175 169 167 165 162 160 164 177 178 177 174 170 173 174 166 153 155 133 145 144 147 129 144 132 138 120 112 115 128 120
177 177 176 181 161 172 183 173 171 177 186 183 174 173 177 169 173 151 144 142 144 144 140 118 130 143 137 122 125 127 124 129
180 170 178 178 175 166 181 183 186 170 171 186 179 175 177 168 171 157 146 130 156 148 133 127 138 131 133 137 131 125 134 138
177 180 175 167 187 176 181 171 176 175 176 188 192 179 177 176 170 155 146 151 146 159 159 141 159 148 132 130 135 132 130 131
181 176 163 171 187 180 179 177 171 187 201 200 196 182 175 172 163 149 152 139 137 125 128 125 132 143 127 134 136 136 137 146
166 168 169 178 186 183 183 187 176 190 199 200 213 206 161 166 151 150 148 140 145 158 154 136 171 139 130 146 130 140 145 142
165 167 174 181 188 178 179 178 193 218 217 180 190 195 143 147 141 151 149 154 158 168 151 158 156 132 146 135 138 143 145 159
162 171 169 165 166 182 169 158 182 167 209 153 163 146 145 145 149 151 153 159 161 161 167 162 131 137 135 123 135 133 144 173
171 163 163 156 158 174 170 165 171 164 222 157 170 158 151 151 154 157 166 165 169 172 170 162 100 126 107 76 47 82 166 165
171 166 159 169 149 149 136 148 140 134 158 158 164 162 165 163 163 164 171 168 171 174 178 140 108 165 138 122 118 28 293 198
173 162 160 162 138 123 106 95 108 145 146 170 170 171 164 171 174 170 176 177 181 179 181 174 156 187 173 138 139 190 141 172
164 159 155 154 155 150 162 149 161 175 173 164 174 172 178 178 182 181 182 179 180 184 185 178 155 172 93 107 90 137 158 152
158 155 155 156 162 167 157 149 131 133 167 182 187 182 190 184 185 186 185 183 183 177 185 169 166 166 165 144 104 79 65 124
159 162 169 159 168 174 172 157 149 158 170 179 194 194 197 190 188 183 183 180 179 182 174 159 153 137 144 136 148 154 174 119
173 168 171 174 176 178 174 164 169 183 190 197 202 206 198 191 182 180 181 178 161 156 161 151 151 148 138 136 91 133 97 134
178 173 170 177 177 180 175 162 179 205 212 205 212 212 204 178 174 172 174 161 154 152 152 144 126 133 137 128 114 78 121 159